NORTHEAST SUFFOLK  -  Special Weather Statement Special Weather Statement        NORTHERN NASSAU  -  Special Weather Statement Special Weather Statement        NORTHWEST SUFFOLK  -  Special Weather Statement Special Weather Statement        SOUTHEAST SUFFOLK  -  Special Weather Statement Special Weather Statement        SOUTHERN NASSAU  -  Special Weather Statement Special Weather Statement        SOUTHWEST SUFFOLK  -  Special Weather Statement Special Weather Statement      

Active alerts

Northern Nassau
  Details for Northern Nassau Special Weather Statement
Southern Nassau
  Details for Southern Nassau Special Weather Statement
Northwest Suffolk
  Details for Northwest Suffolk Special Weather Statement
Southwest Suffolk
  Details for Southwest Suffolk Special Weather Statement
Northeast Suffolk
  Details for Northeast Suffolk Special Weather Statement
Southeast Suffolk
  Details for Southeast Suffolk Special Weather Statement


WXM80 ListenWXM80 Stop

You find our weather info also at:

UK Metoffice

WeatherCloud

Weather Underground

Northeastern Weather Network

AWEKAS

Citizen Weather Observer Program (CWOP)

HAMweather, WeatherForYou, PWS Weather


Weather Underground History page Text

Daily Summary for January 24, 2017 Units:  Metric    English   Both
« Previous Day
Next Day »
Daily Weekly Monthly Yearly Custom
  High: Low: Average:
Temperature: 3.9 °C 3 °C 3.4 °C
Dew Point: 3.2 °C 2.2 °C 2.7 °C
Humidity: 97 % 91 % 96 %
Wind Speed: 30.4 km/h 3.4 km/h 13.5 km/h
Wind Gust: 51.5 km/h - -
Wind:- - SSE
Pressure: 996.8 hPa 990.1 hPa -
Precipitation: 0 mm    
Historical Graphs
 
 
Tabular Data for January 24, 2017
Time Temperature Dew Point Pressure Wind Wind Speed Wind Gust Humidity Rainfall Rate (Hourly)
00:02 3.2 °C 2.6 °C 996.8 hPa ENE 27 km/h 38.9 km/h 96 % 2.79 mm
00:07 3.2 °C 2.7 °C 996.8 hPa ENE 29.5 km/h 38.9 km/h 96 % 2.79 mm
00:12 3.2 °C 2.7 °C 996.5 hPa East 25.3 km/h 37 km/h 96 % 2.54 mm
00:17 3.2 °C 2.7 °C 996.2 hPa East 28.5 km/h 43.5 km/h 96 % 2.54 mm
00:22 3.2 °C 2.7 °C 996.5 hPa NE 25.3 km/h 42.6 km/h 96 % 2.29 mm
00:27 3.2 °C 2.7 °C 996.5 hPa East 23.5 km/h 37 km/h 96 % 2.29 mm
00:32 3.2 °C 2.7 °C 996.2 hPa NE 23 km/h 40.7 km/h 96 % 2.29 mm
00:37 3.2 °C 2.6 °C 995.8 hPa ENE 24.3 km/h 38.9 km/h 96 % 2.29 mm
00:42 3.2 °C 2.7 °C 995.8 hPa NE 23.8 km/h 37 km/h 96 % 2.29 mm
00:47 3.2 °C 2.6 °C 995.5 hPa East 27.4 km/h 40.7 km/h 96 % 2.29 mm
00:52 3.2 °C 2.7 °C 995.5 hPa NE 24.9 km/h 31.5 km/h 96 % 2.29 mm
00:58 3.2 °C 2.7 °C 995.5 hPa East 22.7 km/h 33.8 km/h 96 % 2.29 mm
01:03 3.2 °C 2.7 °C 995.5 hPa East 21.1 km/h 40.7 km/h 96 % 2.29 mm
01:08 3.3 °C 2.7 °C 995.5 hPa NE 21.7 km/h 37 km/h 96 % 2.29 mm
01:13 3.3 °C 2.7 °C 995.5 hPa NE 25.9 km/h 31.5 km/h 96 % 2.54 mm
01:18 3.3 °C 2.7 °C 995.1 hPa NE 19 km/h 29.6 km/h 96 % 2.54 mm
01:23 3.3 °C 2.8 °C 994.8 hPa NE 26.9 km/h 38.9 km/h 96 % 2.79 mm
01:28 3.3 °C 2.8 °C 994.8 hPa ENE 21.6 km/h 37 km/h 96 % 2.79 mm
01:33 3.3 °C 2.8 °C 994.8 hPa ENE 23.7 km/h 42.6 km/h 96 % 2.54 mm
01:38 3.3 °C 2.8 °C 994.5 hPa NE 22 km/h 31.5 km/h 96 % 2.79 mm
01:43 3.3 °C 2.8 °C 994.5 hPa NE 25.4 km/h 37 km/h 96 % 2.29 mm
01:48 3.3 °C 2.7 °C 994.5 hPa NE 25.4 km/h 38.9 km/h 96 % 2.29 mm
01:53 3.3 °C 2.7 °C 994.1 hPa East 27.8 km/h 40.2 km/h 96 % 2.03 mm
01:58 3.2 °C 2.7 °C 994.1 hPa NE 18.5 km/h 35.2 km/h 96 % 1.78 mm
02:03 3.2 °C 2.7 °C 994.1 hPa NE 23.5 km/h 37 km/h 96 % 1.78 mm
02:08 3.2 °C 2.6 °C 993.8 hPa East 20.4 km/h 31.5 km/h 96 % 1.78 mm
02:13 3.2 °C 2.6 °C 993.5 hPa ENE 22.2 km/h 33.3 km/h 96 % 1.78 mm
02:18 3.1 °C 2.6 °C 993.8 hPa NE 17.9 km/h 31.5 km/h 96 % 1.52 mm
02:23 3.1 °C 2.5 °C 993.8 hPa NE 21.2 km/h 31.5 km/h 96 % 1.52 mm
02:29 3.1 °C 2.5 °C 993.8 hPa ENE 20.1 km/h 31.5 km/h 96 % 1.78 mm
02:34 3.1 °C 2.6 °C 994.1 hPa ENE 23.2 km/h 44.4 km/h 96 % 1.52 mm
02:39 3.1 °C 2.6 °C 994.1 hPa ENE 19.3 km/h 37 km/h 96 % 0 mm
02:44 3.1 °C 2.5 °C 993.8 hPa ENE 24.1 km/h 40.2 km/h 96 % 0 mm
02:49 3.1 °C 2.6 °C 993.5 hPa ENE 22.5 km/h 38.6 km/h 96 % 0 mm
02:54 3.1 °C 2.6 °C 993.5 hPa ENE 24.1 km/h 41.8 km/h 96 % 0 mm
02:59 3.1 °C 2.4 °C 993.5 hPa ENE 30.4 km/h 42.6 km/h 95 % 1.27 mm
03:04 3.1 °C 2.4 °C 993.1 hPa ENE 25.7 km/h 51.5 km/h 95 % 0 mm
03:09 3.1 °C 2.3 °C 993.1 hPa NE 19.3 km/h 41.8 km/h 95 % 0 mm
03:14 3.1 °C 2.5 °C 993.1 hPa NE 22.5 km/h 37 km/h 96 % 0 mm
03:19 3 °C 2.4 °C 993.1 hPa NE 22.7 km/h 37 km/h 96 % 0.76 mm
03:24 3 °C 2.4 °C 993.1 hPa NE 19.3 km/h 43.5 km/h 96 % 0 mm
03:29 3 °C 2.4 °C 993.1 hPa NE 20.9 km/h 33.8 km/h 96 % 0 mm
03:34 3 °C 2.4 °C 992.8 hPa NE 25.7 km/h 41.8 km/h 96 % 0 mm
03:39 3 °C 2.4 °C 992.8 hPa ENE 22.5 km/h 40.2 km/h 96 % 0 mm
03:44 3 °C 2.4 °C 992.8 hPa ENE 23.8 km/h 38.9 km/h 96 % 0.25 mm
03:49 3 °C 2.4 °C 992.8 hPa ENE 25.3 km/h 37 km/h 96 % 0.51 mm
03:54 3.1 °C 2.5 °C 992.8 hPa NE 18.2 km/h 38.9 km/h 96 % 0.51 mm
03:59 3.1 °C 2.5 °C 992.8 hPa NE 21.9 km/h 40.7 km/h 96 % 0.51 mm
04:04 3.1 °C 2.5 °C 992.8 hPa NE 19.6 km/h 27.8 km/h 96 % 0.51 mm
04:09 3.1 °C 2.5 °C 993.1 hPa ENE 19.5 km/h 29.6 km/h 96 % 0.51 mm
04:14 3.1 °C 2.5 °C 993.1 hPa ENE 19.6 km/h 31.5 km/h 96 % 0.25 mm
04:19 3.1 °C 2.7 °C 993.1 hPa NE 15.3 km/h 25.7 km/h 97 % 0.25 mm
04:24 3.1 °C 2.7 °C 993.1 hPa NE 19.2 km/h 27.8 km/h 97 % 0.25 mm
04:29 3.1 °C 2.7 °C 992.8 hPa ENE 16.1 km/h 24.1 km/h 97 % 0.25 mm
04:34 3.1 °C 2.7 °C 992.8 hPa ENE 19.2 km/h 30.6 km/h 97 % 0.25 mm
04:39 3.2 °C 2.7 °C 992.8 hPa NE 18.2 km/h 31.5 km/h 97 % 0.25 mm
04:44 3.2 °C 2.7 °C 992.8 hPa ENE 14.8 km/h 22.5 km/h 97 % 0 mm
04:49 3.1 °C 2.7 °C 992.8 hPa East 19.2 km/h 35.2 km/h 97 % 0 mm
04:55 3.1 °C 2.7 °C 992.8 hPa NE 23.5 km/h 29.6 km/h 97 % 0 mm
05:00 3.1 °C 2.7 °C 992.4 hPa East 19.5 km/h 30.6 km/h 97 % 0 mm
05:05 3.1 °C 2.7 °C 992.4 hPa NE 26.7 km/h 35.2 km/h 97 % 0 mm
05:10 3.1 °C 2.7 °C 992.4 hPa NE 17.7 km/h 29 km/h 97 % 0 mm
05:15 3.1 °C 2.7 °C 992.8 hPa NE 13.4 km/h 24.1 km/h 97 % 0 mm
05:20 3.1 °C 2.7 °C 992.4 hPa NNE 20.6 km/h 31.5 km/h 97 % 0 mm
05:25 3.1 °C 2.7 °C 992.4 hPa NNE 17.2 km/h 35.2 km/h 97 % 0 mm
05:30 3.2 °C 2.7 °C 992.8 hPa NE 13.2 km/h 24.1 km/h 97 % 0 mm
05:35 3.2 °C 2.7 °C 992.8 hPa NNE 14.5 km/h 20.4 km/h 97 % 0 mm
05:40 3.2 °C 2.7 °C 992.8 hPa NE 14.3 km/h 24.1 km/h 97 % 0 mm
05:45 3.2 °C 2.7 °C 992.8 hPa NE 10.8 km/h 27.4 km/h 97 % 0 mm
05:50 3.2 °C 2.7 °C 992.8 hPa NE 14.8 km/h 22.2 km/h 97 % 0 mm
05:55 3.2 °C 2.7 °C 993.1 hPa NNE 12.1 km/h 20.9 km/h 97 % 0 mm
06:00 3.2 °C 2.7 °C 993.1 hPa NNE 14 km/h 24.1 km/h 97 % 0 mm
06:05 3.2 °C 2.7 °C 992.8 hPa ENE 12.9 km/h 13 km/h 97 % 0 mm
06:10 3.2 °C 2.7 °C 992.8 hPa NNE 13.4 km/h 16.7 km/h 97 % 0 mm
06:15 3.2 °C 2.8 °C 993.1 hPa NNE 10.6 km/h 18.5 km/h 97 % 0 mm
06:21 3.2 °C 2.7 °C 992.8 hPa NNE 11.7 km/h 18.5 km/h 97 % 0 mm
06:26 3.2 °C 2.8 °C 992.8 hPa ENE 10.8 km/h 18.5 km/h 97 % 0 mm
06:31 3.2 °C 2.8 °C 992.8 hPa NE 12.9 km/h 18.5 km/h 97 % 0 mm
06:36 3.2 °C 2.8 °C 992.8 hPa NNE 11.1 km/h 22.2 km/h 97 % 0 mm
06:41 3.2 °C 2.8 °C 992.8 hPa NE 11.6 km/h 18.5 km/h 97 % 0 mm
06:46 3.2 °C 2.8 °C 992.8 hPa NE 13.8 km/h 29.6 km/h 97 % 0 mm
06:51 3.2 °C 2.8 °C 992.8 hPa NNE 12.7 km/h 25.9 km/h 97 % 0 mm
06:56 3.2 °C 2.8 °C 993.1 hPa NE 13.4 km/h 20.4 km/h 97 % 0 mm
07:01 3.2 °C 2.8 °C 992.8 hPa NNE 13.4 km/h 18.5 km/h 97 % 0 mm
07:06 3.3 °C 2.8 °C 992.8 hPa NNE 14.5 km/h 29.6 km/h 97 % 0 mm
07:11 3.3 °C 2.8 °C 992.8 hPa NNE 15.4 km/h 27.8 km/h 97 % 0 mm
07:16 3.3 °C 2.8 °C 992.8 hPa NNE 14 km/h 22.2 km/h 97 % 0 mm
07:21 3.3 °C 2.8 °C 992.8 hPa NNE 12.9 km/h 19.3 km/h 97 % 0 mm
07:26 3.3 °C 2.8 °C 992.4 hPa NNE 12.1 km/h 16.1 km/h 97 % 0 mm
07:31 3.3 °C 2.9 °C 992.8 hPa NNE 14.5 km/h 18.5 km/h 97 % 0 mm
07:36 3.3 °C 2.9 °C 992.4 hPa NE 11.9 km/h 24.1 km/h 97 % 0 mm
07:41 3.3 °C 2.9 °C 992.8 hPa NE 10.1 km/h 20.4 km/h 97 % 0 mm
07:46 3.3 °C 2.9 °C 992.8 hPa ENE 11.4 km/h 16.1 km/h 97 % 0 mm
07:51 3.3 °C 2.9 °C 992.8 hPa NE 15 km/h 25.9 km/h 97 % 0 mm
07:57 3.3 °C 2.9 °C 992.8 hPa NE 11.6 km/h 20.4 km/h 97 % 0 mm
08:02 3.3 °C 2.9 °C 992.4 hPa NE 11.7 km/h 22.2 km/h 97 % 0 mm
08:07 3.3 °C 2.9 °C 992.8 hPa ENE 15.9 km/h 25.9 km/h 97 % 0 mm
08:12 3.3 °C 2.9 °C 992.4 hPa NNE 10.3 km/h 18.5 km/h 97 % 0 mm
08:17 3.3 °C 2.9 °C 992.4 hPa NNE 11.1 km/h 18.5 km/h 97 % 0 mm
08:22 3.3 °C 2.9 °C 992.8 hPa NNE 14 km/h 20.9 km/h 97 % 0 mm
08:27 3.3 °C 2.9 °C 992.8 hPa NNE 14.5 km/h 25.9 km/h 97 % 0 mm
08:32 3.3 °C 2.9 °C 992.4 hPa NNE 17.7 km/h 22.2 km/h 97 % 0 mm
08:37 3.3 °C 2.8 °C 992.8 hPa NE 9.7 km/h 14.8 km/h 97 % 0 mm
08:42 3.3 °C 2.9 °C 992.8 hPa NNE 10.9 km/h 17.7 km/h 97 % 0 mm
08:47 3.3 °C 2.8 °C 992.8 hPa NE 12.2 km/h 22.2 km/h 97 % 0 mm
08:52 3.3 °C 2.8 °C 992.8 hPa NE 12.7 km/h 22.2 km/h 97 % 0 mm
08:57 3.3 °C 2.8 °C 992.8 hPa North 20.1 km/h 25.7 km/h 97 % 0 mm
09:02 3.2 °C 2.8 °C 992.8 hPa NE 14.6 km/h 22.5 km/h 97 % 0 mm
09:07 3.2 °C 2.8 °C 992.8 hPa NNE 19.3 km/h 29.6 km/h 97 % 0 mm
09:12 3.2 °C 2.8 °C 993.1 hPa NE 14.8 km/h 22.2 km/h 97 % 0 mm
09:18 3.3 °C 2.8 °C 992.8 hPa NE 12.4 km/h 18.5 km/h 97 % 0 mm
09:23 3.3 °C 2.9 °C 992.8 hPa NNE 14.8 km/h 18.5 km/h 97 % 0 mm
09:28 3.4 °C 2.9 °C 992.8 hPa North 9.2 km/h 27.8 km/h 97 % 0 mm
09:33 3.4 °C 2.9 °C 992.8 hPa NNE 16.7 km/h 27.8 km/h 97 % 0 mm
09:38 3.4 °C 3 °C 992.4 hPa North 19.6 km/h 24.1 km/h 97 % 0 mm
09:43 3.4 °C 3 °C 992.4 hPa NNE 14.2 km/h 22.2 km/h 97 % 0 mm
09:48 3.5 °C 3.1 °C 992.8 hPa North 17.9 km/h 31.5 km/h 97 % 0 mm
09:53 3.6 °C 3.1 °C 992.8 hPa NE 13.5 km/h 22.2 km/h 97 % 0 mm
09:58 3.6 °C 3.2 °C 992.8 hPa NNE 19.3 km/h 29.6 km/h 97 % 0 mm
10:03 3.6 °C 3.1 °C 992.8 hPa NNE 14.8 km/h 27.8 km/h 97 % 0 mm
10:08 3.6 °C 3 °C 992.8 hPa NNE 17.1 km/h 27.8 km/h 96 % 0 mm
10:13 3.6 °C 3 °C 992.4 hPa North 17.5 km/h 27.8 km/h 96 % 0 mm
10:18 3.6 °C 3 °C 992.4 hPa NNE 18.5 km/h 20.9 km/h 96 % 0 mm
10:23 3.6 °C 3.1 °C 992.4 hPa NNE 17.5 km/h 31.5 km/h 96 % 0 mm
10:28 3.6 °C 3.1 °C 992.4 hPa NE 14.8 km/h 19.3 km/h 96 % 0 mm
10:33 3.6 °C 3.1 °C 992.4 hPa NNE 15.9 km/h 27.4 km/h 96 % 0 mm
10:38 3.6 °C 2.9 °C 992.4 hPa NE 15.3 km/h 24.1 km/h 95 % 0 mm
10:43 3.6 °C 2.9 °C 992.1 hPa NNE 14.5 km/h 22.2 km/h 95 % 0 mm
10:48 3.6 °C 2.9 °C 992.1 hPa NE 13.5 km/h 22.2 km/h 95 % 0 mm
10:54 3.6 °C 2.9 °C 992.1 hPa NE 15 km/h 31.5 km/h 95 % 0 mm
10:59 3.6 °C 2.9 °C 992.1 hPa NE 18.8 km/h 24.1 km/h 95 % 0 mm
11:04 3.6 °C 2.9 °C 992.1 hPa NNE 16.1 km/h 33.8 km/h 95 % 0 mm
11:09 3.6 °C 2.9 °C 991.8 hPa NNE 14.5 km/h 32.2 km/h 95 % 0 mm
11:14 3.6 °C 2.9 °C 991.4 hPa NNE 14.5 km/h 32.2 km/h 95 % 0 mm
11:19 3.6 °C 2.9 °C 991.4 hPa NNE 14.5 km/h 27.4 km/h 95 % 0 mm
11:24 3.6 °C 2.8 °C 991.4 hPa NNE 19.3 km/h 24.1 km/h 95 % 0 mm
11:29 3.6 °C 2.8 °C 991.4 hPa NNE 14.5 km/h 24.1 km/h 95 % 0 mm
11:34 3.6 °C 2.9 °C 991.4 hPa NNE 14.3 km/h 19.3 km/h 95 % 0.25 mm
11:39 3.7 °C 2.9 °C 991.4 hPa NNE 16.1 km/h 27.4 km/h 95 % 0 mm
11:44 3.7 °C 2.9 °C 991.1 hPa NNE 16.1 km/h 25.7 km/h 95 % 0 mm
11:49 3.7 °C 2.9 °C 991.1 hPa NNE 16.1 km/h 27.4 km/h 95 % 0 mm
11:54 3.7 °C 2.9 °C 991.1 hPa NNE 14.5 km/h 29 km/h 95 % 0 mm
11:59 3.7 °C 3 °C 990.7 hPa NE 20 km/h 25.9 km/h 95 % 0.25 mm
12:04 3.7 °C 3 °C 990.7 hPa North 16.7 km/h 22.5 km/h 95 % 0.25 mm
12:09 3.8 °C 3.1 °C 990.7 hPa North 11.3 km/h 18.5 km/h 95 % 0.25 mm
12:14 3.8 °C 3.1 °C 990.7 hPa NNE 16.6 km/h 25.9 km/h 95 % 0.25 mm
12:19 3.8 °C 3.1 °C 990.4 hPa NNE 15.3 km/h 20.9 km/h 95 % 0 mm
12:24 3.8 °C 3.1 °C 990.7 hPa North 13 km/h 18.5 km/h 95 % 0 mm
12:29 3.8 °C 3.1 °C 990.4 hPa NE 16.4 km/h 24.1 km/h 95 % 0 mm
12:34 3.8 °C 3.1 °C 990.4 hPa North 11.9 km/h 20.4 km/h 95 % 0 mm
12:39 3.9 °C 3.2 °C 990.7 hPa North 12.2 km/h 19.3 km/h 95 % 0 mm
12:44 3.9 °C 3.2 °C 990.4 hPa North 13 km/h 18.5 km/h 95 % 0 mm
12:49 3.9 °C 3.2 °C 990.4 hPa NNE 11.9 km/h 20.4 km/h 95 % 0 mm
12:54 3.8 °C 3.1 °C 990.4 hPa NE 12.7 km/h 18.5 km/h 95 % 0 mm
12:59 3.8 °C 3.1 °C 990.4 hPa North 13.2 km/h 18.5 km/h 95 % 0 mm
13:04 3.8 °C 3.1 °C 990.4 hPa North 11.6 km/h 18.5 km/h 95 % 0 mm
13:10 3.8 °C 3.1 °C 990.4 hPa NNE 11.6 km/h 20.4 km/h 95 % 0 mm
13:15 3.8 °C 3.1 °C 990.4 hPa North 11.9 km/h 17.7 km/h 95 % 0 mm
13:20 3.7 °C 3 °C 990.4 hPa NNE 15 km/h 18.5 km/h 95 % 0 mm
13:25 3.7 °C 2.9 °C 990.4 hPa NNE 11.9 km/h 18.5 km/h 95 % 0 mm
13:30 3.7 °C 2.9 °C 990.4 hPa North 8 km/h 13 km/h 95 % 0 mm
13:35 3.7 °C 2.9 °C 990.4 hPa NNE 9.3 km/h 16.7 km/h 95 % 0 mm
13:40 3.6 °C 2.9 °C 990.1 hPa NNW 10.6 km/h 22.5 km/h 95 % 0 mm
13:45 3.6 °C 2.9 °C 990.4 hPa North 11.7 km/h 20.4 km/h 95 % 0 mm
13:50 3.6 °C 3.1 °C 990.4 hPa North 11.6 km/h 18.5 km/h 96 % 0 mm
13:55 3.7 °C 3.1 °C 990.4 hPa NE 12.6 km/h 18.5 km/h 96 % 0 mm
14:00 3.6 °C 3.1 °C 990.4 hPa NNE 10.9 km/h 18.5 km/h 96 % 0 mm
14:05 3.6 °C 3 °C 990.4 hPa NNE 12.7 km/h 18.5 km/h 96 % 0 mm
14:10 3.6 °C 3 °C 990.4 hPa North 15.8 km/h 20.4 km/h 96 % 0 mm
14:15 3.5 °C 2.9 °C 990.4 hPa NE 14.6 km/h 20.4 km/h 96 % 0 mm
14:20 3.5 °C 2.9 °C 990.4 hPa NNW 9.8 km/h 16.7 km/h 96 % 0 mm
14:25 3.4 °C 2.9 °C 990.4 hPa North 11.1 km/h 16.1 km/h 96 % 0 mm
14:31 3.4 °C 2.9 °C 990.4 hPa NNE 9 km/h 18.5 km/h 96 % 0 mm
14:36 3.4 °C 2.9 °C 990.4 hPa NNW 12.6 km/h 19.3 km/h 96 % 0 mm
14:41 3.4 °C 2.9 °C 990.4 hPa NNW 10.5 km/h 16.7 km/h 96 % 0 mm
14:46 3.4 °C 2.9 °C 990.7 hPa NNE 6.9 km/h 16.7 km/h 96 % 0 mm
14:51 3.4 °C 2.9 °C 990.7 hPa North 8.9 km/h 16.7 km/h 96 % 0 mm
14:56 3.4 °C 2.9 °C 990.7 hPa North 6.8 km/h 20.4 km/h 96 % 0 mm
15:01 3.4 °C 2.9 °C 990.7 hPa North 11.3 km/h 16.7 km/h 96 % 0 mm
15:06 3.4 °C 2.9 °C 990.7 hPa NW 6.1 km/h 14.8 km/h 96 % 0 mm
15:11 3.4 °C 2.9 °C 990.7 hPa NNE 7.2 km/h 14.8 km/h 96 % 0 mm
15:16 3.4 °C 2.9 °C 990.7 hPa North 8.4 km/h 13 km/h 96 % 0 mm
15:21 3.4 °C 2.8 °C 990.7 hPa NW 7.6 km/h 14.8 km/h 96 % 0 mm
15:26 3.4 °C 2.8 °C 990.7 hPa NNW 10.3 km/h 11.3 km/h 96 % 0.25 mm
15:31 3.4 °C 2.8 °C 990.7 hPa North 4.5 km/h 14.8 km/h 96 % 0.25 mm
15:36 3.4 °C 2.8 °C 990.7 hPa NNE 8.4 km/h 18.5 km/h 96 % 0.51 mm
15:42 3.4 °C 2.8 °C 990.7 hPa North 10.8 km/h 18.5 km/h 96 % 0.51 mm
15:47 3.4 °C 2.9 °C 991.1 hPa NNW 10.5 km/h 14.5 km/h 96 % 0.51 mm
15:52 3.4 °C 2.9 °C 990.7 hPa NNE 10.8 km/h 24.1 km/h 96 % 0.76 mm
15:57 3.4 °C 2.9 °C 991.1 hPa NNW 10.9 km/h 22.2 km/h 96 % 0.76 mm
16:02 3.4 °C 2.9 °C 991.1 hPa NNE 7.7 km/h 14.8 km/h 96 % 0.76 mm
16:07 3.4 °C 2.9 °C 991.4 hPa North 5.3 km/h 16.7 km/h 96 % 0.76 mm
16:12 3.4 °C 2.9 °C 991.4 hPa NW 10.1 km/h 20.4 km/h 96 % 0.76 mm
16:17 3.5 °C 2.9 °C 991.4 hPa NNW 7.9 km/h 16.7 km/h 96 % 0.76 mm
16:22 3.5 °C 2.9 °C 991.8 hPa NNW 6.9 km/h 13 km/h 96 % 0.76 mm
16:27 3.4 °C 2.9 °C 991.8 hPa NNW 6.9 km/h 11.1 km/h 96 % 0.76 mm
16:32 3.4 °C 2.9 °C 991.8 hPa NNW 6.3 km/h 14.8 km/h 96 % 0.76 mm
16:37 3.4 °C 2.8 °C 991.8 hPa NNW 8.7 km/h 14.8 km/h 96 % 0.76 mm
16:42 3.3 °C 2.8 °C 991.8 hPa North 7.2 km/h 13 km/h 96 % 1.02 mm
16:47 3.3 °C 2.8 °C 991.8 hPa North 5.6 km/h 7.4 km/h 96 % 1.02 mm
16:52 3.3 °C 2.7 °C 991.8 hPa NNW 8.5 km/h 18.5 km/h 96 % 1.02 mm
16:57 3.3 °C 2.7 °C 992.1 hPa NNW 7.9 km/h 11.1 km/h 96 % 1.02 mm
17:02 3.2 °C 2.7 °C 991.8 hPa NNW 6.9 km/h 11.1 km/h 96 % 1.27 mm
17:07 3.2 °C 2.6 °C 992.1 hPa NNW 5.8 km/h 16.7 km/h 96 % 1.27 mm
17:12 3.2 °C 2.6 °C 992.1 hPa NNW 12.7 km/h 20.4 km/h 96 % 1.27 mm
17:18 3.2 °C 2.6 °C 992.1 hPa NW 7.7 km/h 11.3 km/h 96 % 1.52 mm
17:23 3.2 °C 2.6 °C 992.1 hPa NNW 8.5 km/h 18.5 km/h 96 % 1.52 mm
17:28 3.2 °C 2.6 °C 992.4 hPa WNW 7.9 km/h 18.5 km/h 96 % 1.27 mm
17:33 3.2 °C 2.6 °C 992.4 hPa NNW 11.6 km/h 18.5 km/h 96 % 1.27 mm
17:38 3.2 °C 2.6 °C 992.8 hPa NNW 10.5 km/h 18.5 km/h 96 % 1.27 mm
17:43 3.1 °C 2.6 °C 992.8 hPa NNW 6.1 km/h 11.1 km/h 96 % 1.02 mm
17:48 3.1 °C 2.6 °C 992.8 hPa NW 8.4 km/h 16.1 km/h 96 % 1.02 mm
17:53 3.1 °C 2.6 °C 992.8 hPa North 10 km/h 16.1 km/h 96 % 1.02 mm
17:58 3.1 °C 2.6 °C 993.1 hPa NW 8.9 km/h 18.5 km/h 96 % 1.27 mm
18:03 3.1 °C 2.6 °C 993.1 hPa NW 7.9 km/h 16.7 km/h 96 % 1.02 mm
18:08 3.1 °C 2.6 °C 993.1 hPa NNW 5.1 km/h 9.3 km/h 96 % 1.02 mm
18:13 3.1 °C 2.6 °C 993.1 hPa North 11.3 km/h 18.5 km/h 96 % 1.27 mm
18:18 3.2 °C 2.6 °C 993.1 hPa NW 10.1 km/h 18.5 km/h 96 % 1.02 mm
18:23 3.2 °C 2.6 °C 993.1 hPa NNW 8.5 km/h 20.4 km/h 96 % 1.02 mm
18:28 3.2 °C 2.7 °C 993.1 hPa NNW 8.5 km/h 16.7 km/h 96 % 1.02 mm
18:34 3.2 °C 2.7 °C 993.1 hPa NW 7.6 km/h 18.5 km/h 96 % 1.02 mm
18:39 3.2 °C 2.7 °C 993.1 hPa NNW 9 km/h 18.5 km/h 96 % 1.02 mm
18:44 3.3 °C 2.7 °C 993.5 hPa NW 8 km/h 12.9 km/h 96 % 0 mm
18:49 3.3 °C 2.7 °C 993.5 hPa NW 8 km/h 20.9 km/h 96 % 0 mm
18:54 3.3 °C 2.7 °C 993.5 hPa NNW 9.2 km/h 16.1 km/h 96 % 1.02 mm
18:59 3.3 °C 2.8 °C 993.5 hPa NW 6.8 km/h 11.3 km/h 96 % 0.76 mm
19:04 3.3 °C 2.8 °C 993.8 hPa NNW 6.3 km/h 11.1 km/h 96 % 1.02 mm
19:09 3.3 °C 2.8 °C 993.8 hPa WNW 8 km/h 13 km/h 96 % 1.02 mm
19:14 3.4 °C 2.8 °C 993.8 hPa WNW 6 km/h 16.7 km/h 96 % 0.76 mm
19:19 3.4 °C 2.8 °C 993.8 hPa North 6.1 km/h 13 km/h 96 % 0.76 mm
19:24 3.4 °C 2.9 °C 993.8 hPa NNW 4 km/h 11.1 km/h 96 % 0.76 mm
19:29 3.4 °C 2.9 °C 993.8 hPa NW 5.6 km/h 16.7 km/h 96 % 0.51 mm
19:34 3.4 °C 2.8 °C 993.8 hPa NW 8.4 km/h 18.5 km/h 96 % 0.51 mm
19:39 3.4 °C 2.8 °C 993.8 hPa NNW 5.5 km/h 13 km/h 96 % 0.51 mm
19:45 3.4 °C 2.8 °C 993.8 hPa WNW 4.5 km/h 7.4 km/h 96 % 0.25 mm
19:49 3.4 °C 2.8 °C 993.8 hPa WNW 9.5 km/h 14.8 km/h 96 % 0.25 mm
19:54 3.4 °C 2.8 °C 993.8 hPa NNW 6.4 km/h 11.3 km/h 96 % 0.25 mm
20:00 3.3 °C 2.8 °C 993.8 hPa NNW 6.3 km/h 16.7 km/h 96 % 0.25 mm
20:05 3.3 °C 2.8 °C 993.8 hPa NW 7.4 km/h 13 km/h 96 % 0 mm
20:10 3.3 °C 2.6 °C 993.8 hPa NNW 9.2 km/h 17.7 km/h 95 % 0 mm
20:15 3.3 °C 2.6 °C 993.5 hPa WNW 11.7 km/h 24.1 km/h 95 % 0 mm
20:20 3.3 °C 2.6 °C 993.8 hPa NW 9 km/h 18.5 km/h 95 % 0 mm
20:25 3.3 °C 2.6 °C 993.8 hPa NNW 8.4 km/h 22.2 km/h 95 % 0 mm
20:30 3.4 °C 2.7 °C 993.8 hPa WNW 10 km/h 18.5 km/h 95 % 0 mm
20:35 3.4 °C 2.7 °C 994.1 hPa NW 10.6 km/h 22.2 km/h 95 % 0 mm
20:40 3.4 °C 2.5 °C 994.1 hPa NW 7.9 km/h 18.5 km/h 94 % 0 mm
20:45 3.4 °C 2.6 °C 994.1 hPa West 8 km/h 16.7 km/h 94 % 0 mm
20:50 3.4 °C 2.6 °C 994.1 hPa NW 10.6 km/h 18.5 km/h 94 % 0 mm
20:55 3.4 °C 2.6 °C 994.5 hPa NNW 11.7 km/h 18.5 km/h 94 % 0 mm
21:00 3.4 °C 2.4 °C 994.5 hPa NNW 9.8 km/h 14.8 km/h 93 % 0 mm
21:05 3.5 °C 2.5 °C 994.5 hPa NW 6.1 km/h 14.8 km/h 93 % 0 mm
21:10 3.5 °C 2.5 °C 994.5 hPa NNW 6.9 km/h 20.4 km/h 93 % 0 mm
21:16 3.5 °C 2.5 °C 994.8 hPa North 12.2 km/h 18.5 km/h 93 % 0 mm
21:21 3.6 °C 2.4 °C 994.8 hPa NNW 9.5 km/h 14.8 km/h 92 % 0 mm
21:26 3.6 °C 2.4 °C 994.8 hPa NNW 10.8 km/h 14.8 km/h 92 % 0 mm
21:31 3.6 °C 2.4 °C 994.8 hPa NW 6 km/h 16.7 km/h 92 % 0 mm
21:37 3.6 °C 2.4 °C 994.8 hPa NW 10.6 km/h 18.5 km/h 92 % 0 mm
21:42 3.6 °C 2.3 °C 994.8 hPa WNW 8.5 km/h 16.7 km/h 91 % 0 mm
21:47 3.7 °C 2.3 °C 994.8 hPa NNW 8 km/h 13 km/h 91 % 0 mm
21:52 3.7 °C 2.3 °C 994.8 hPa NW 6.9 km/h 14.8 km/h 91 % 0 mm
21:57 3.7 °C 2.4 °C 994.5 hPa NW 5.8 km/h 14.5 km/h 91 % 0 mm
22:02 3.8 °C 2.4 °C 994.5 hPa NNW 12.6 km/h 18.5 km/h 91 % 0 mm
22:07 3.8 °C 2.4 °C 994.5 hPa West 4.7 km/h 9.3 km/h 91 % 0 mm
22:12 3.8 °C 2.4 °C 994.5 hPa NW 14.2 km/h 24.1 km/h 91 % 0 mm
22:17 3.8 °C 2.4 °C 994.5 hPa NNW 14.3 km/h 22.2 km/h 91 % 0 mm
22:22 3.8 °C 2.5 °C 994.5 hPa NNW 7.6 km/h 14.8 km/h 91 % 0 mm
22:27 3.8 °C 2.5 °C 994.8 hPa NW 11.1 km/h 16.7 km/h 91 % 0 mm
22:32 3.8 °C 2.5 °C 994.8 hPa NW 12.4 km/h 14.8 km/h 91 % 0 mm
22:37 3.8 °C 2.5 °C 994.5 hPa WNW 10.9 km/h 18.5 km/h 91 % 0 mm
22:42 3.8 °C 2.5 °C 994.8 hPa WNW 11.6 km/h 22.2 km/h 91 % 0 mm
22:48 3.8 °C 2.5 °C 994.8 hPa NW 8.9 km/h 16.1 km/h 91 % 0 mm
22:53 3.8 °C 2.5 °C 994.8 hPa NNW 9.8 km/h 22.2 km/h 91 % 0 mm
22:58 3.8 °C 2.5 °C 994.8 hPa NW 6.6 km/h 18.5 km/h 91 % 0 mm
23:03 3.8 °C 2.4 °C 994.8 hPa WNW 10.6 km/h 18.5 km/h 91 % 0 mm
23:08 3.8 °C 2.4 °C 995.1 hPa WNW 8.7 km/h 18.5 km/h 91 % 0 mm
23:09 3.8 °C 2.4 °C 995.1 hPa WNW 5.3 km/h 14.8 km/h 91 % 0 mm
23:14 3.8 °C 2.4 °C 995.1 hPa NW 7.7 km/h 18.5 km/h 91 % 0 mm
23:19 3.7 °C 2.4 °C 995.1 hPa WNW 5.5 km/h 18.5 km/h 91 % 0 mm
23:24 3.7 °C 2.6 °C 995.1 hPa WNW 7.7 km/h 14.5 km/h 92 % 0 mm
23:29 3.7 °C 2.3 °C 995.1 hPa West 7.7 km/h 13 km/h 91 % 0 mm
23:34 3.6 °C 2.3 °C 995.1 hPa WSW 7.6 km/h 13 km/h 91 % 0 mm
23:39 3.6 °C 2.4 °C 994.8 hPa WNW 9.8 km/h 18.5 km/h 92 % 0 mm
23:44 3.6 °C 2.2 °C 995.1 hPa WNW 3.4 km/h 9.3 km/h 91 % 0 mm
23:49 3.6 °C 2.2 °C 995.1 hPa WNW 6.4 km/h 11.1 km/h 91 % 0 mm
23:54 3.6 °C 2.2 °C 995.1 hPa WNW 6.6 km/h 13 km/h 91 % 0 mm
23:59 3.6 °C 2.2 °C 995.1 hPa WNW 7.2 km/h 18.5 km/h 91 % 0 mm
Crab Meadow Weather
Compliments of Weather Underground - 3 mb

Script developed by  Jim McMurry - jmcmurry@mwt.net Adapted for the template by  Wim van der Kuil - Leuven-Template.eu

Extremes: The most widespread U.S. cold wave was in February of 1899. It was so cold that the Mississippi River froze over its entire length, with ice as thick as two inches even in New Orleans.